Probability
0 0 0 0 0 0 0 0 0 0 0 0 0 0 0 0 0 0 0 0 0 0 0 0 0 0 0 0 0 0 0 0 0 0 0 0 0 0 0 0 0 0 0
0 0 0 0 0 0 0 0 0 0 0 0 0 0 0 0 0 0 0 0 0 0 0 0 0 0 0 0 0 0 0 0 0 0 0 0 0 0 0 0 0 0 0
0 0 0 0 0 0 0 0 0 0 0 0 0 0 0 0 0 0 0 0 0 0 0 0 0 0 0 0 0 0 0 0 0 0 0 0 0 0 0 0 0 0 0
0 0 0 0 0 0 0 0 0 0 0 0 0 0 0 0 0 0 0 0 0 0 0 0 0 0 0 0 0 0 0 0 0 0 0 0 0 0 0 0 0 0 0
0 0 0 0 0 0 0 0 0 0 0 0 0 0 0 0 0 0 0 0 0 0 0 0 0 0 0 0 0 0 0 0 0 0 0 0 0 0 0 0 0 0 0
0 0 0 0 0 0 0 0 0 0 0 0 0 0 0 0 0 0 0 0 0 0 0 0 0 0 0 0 0 0 0 0 0 0 0 0 0 0 0 0 0 0 0
0 0 0 0 0 0 0 0 0 0 0 0 0 0 0 0 0 0 0 0 0 0 0 0 0 0 0 0 0 0 0 0 0 0 0 0 0 0 0 0 0 0 0
0 0 0 0 0 0 0 0 0 0 0 0 0 0 0 0 0 0 0 0 0 0 0 0 0 0 0 0 0 0 0 0 0 0 0 0 0 0 0 0 0 0 0
0 0 0 0 0 0 0 0 0 0 0 0 0 0 0 0 0 0 0 0 0 0 0 0 0 0 0 0 0 0 0 0 0 0 0 0 0 0 0 0 0 0 0
0 0 0 0 0 0 0 0 0 0 0 0 0 0 0 0 0 0 0 0 0 0 0 0 0 0 0 0 0 0 0 0 0 0 0 0 0 0 0 0 0 0 0
0 0 0 0 0 0 0 0 0 0 0 0 0 0 0 0 0 0 0 0 0 0 0 0 0 0 0 0 0 0 0 0 0 0 0 0 0 0 0 0 0 0 0
0 0 0 0 0 0 0 0 0 0 0 0 0 0 0 0 0 0 0 0 0 0 0 0 0 0 0 0 0 0 0 0 0 0 0 0 0 0 0 0 0 0 0
0 0 0 0 0 0 0 0 0 0 0 0 0 0 0 0 0 0 0 0 0 0 0 0 0 0 0 0 0 0 0 0 0 0 0 0 0 0 0 0 0 0 0
0 0 0 0 0 0 0 0 0 0 0 0 0 0 0 0 0 0 0 0 0 0 0 0 0 0 0 0 0 0 0 0 0 0 0 0 0 0 0 0 0 0 0
0 0 0 0 0 0 0 0 0 0 0 0 0 0 0 0 0 0 0 0 0 0 0 0 0 0 0 0 0 0 0 0 0 0 0 0 0 0 0 0 0 0 0
0 0 0 0 0 0 0 0 0 0 0 0 0 0 0 0 0 0 0 0 0 0 0 0 0 0 0 0 0 0 0 0 0 0 0 0 0 0 0 0 0 0 0
0 0 0 0 0 0 0 0 0 0 0 0 0 0 0 0 0 0 0 0 0 0 0 0 0 0 0 0 0 0 0 0 0 0 0 0 0 0 0 0 0 0 0
0 0 0 0 0 0 0 0 0 0 0 0 0 0 0 0 0 0 0 0 0 0 0 0 0 0 0 0 0 0 0 0 0 0 0 0 0 0 0 0 0 0 0
0 0 0 0 0 0 0 0 0 0 0 0 0 0 0 0 0 0 0 0 0 0 0 0 0 0 0 0 0 0 0 0 0 0 0 0 0 0 0 0 0 0 0
0 0 0 0 0 0 0 0 0 0 0 0 0 0 0 0 0 0 0 0 0 0 0 0 0 0 0 0 0 0 0 0 0 0 0 0 0 0 0 0 0 0 0
0 0 0 0 0 0 0 0 0 0 0 0 0 0 0 0 0 0 0 0 0 0 0 0 0 0 0 0 0 0 0 0 0 0 0 0 0 0 0 0 0 0 0
0 0 0 0 0 0 0 0 0 0 0 0 0 0 0 0 0 0 0 0 0 0 0 0 0 0 0 0 0 0 0 0 0 0 0 0 0 0 0 0 0 0 0
0 0 0 0 0 0 0 0 0 0 0 0 0 0 0 0 0 0 0 0 0 0 0 0 0 0 0 0 0 0 0 0 0 0 0 0 0 0 0 0 0 0 0
0 0 0 0 0 0 0 0 0 0 0 0 0 0 0 0 0 0 0 0 0 0 0 0 0 0 0 0 0 0 0 0 0 0 0 0 0 0 0 0 0 0 0
0 0 0 0 0 0 0 0 0 0 0 0 0 0 0 0 0 0 0 0 0 0 0 0 0 0 0 0 0 0 0 0 0 0 0 0 0 0 0 0 0 0 0
0 0 0 0 0 0 0 0 0 0 0 0 0 0 0 0 0 0 0 0 0 0 0 0 0 0 0 0 0 0 0 0 0 0 0 0 0 0 0 0 0 0 0
Height
5764 5761 5758 5755 5751 5747 5743 5739 5735 5730 5724 5719 5713 5708 5702 5696 5690 5684 5678 5671 5664 5657 5650 5643 5635 5627 5619 5611 5603 5596 5588 5581 5578 5576 5570 5565 5561 5557 5555 5552 5551 5551 5551
5754 5751 5748 5744 5740 5736 5732 5727 5722 5717 5711 5705 5700 5694 5688 5682 5676 5670 5663 5656 5649 5642 5634 5626 5618 5610 5602 5593 5585 5577 5570 5562 5557 5555 5552 5548 5544 5541 5539 5537 5536 5535 5535
5743 5740 5736 5732 5728 5723 5719 5714 5709 5703 5697 5691 5685 5680 5674 5668 5662 5655 5648 5641 5634 5626 5618 5610 5601 5592 5584 5575 5567 5559 5552 5546 5541 5538 5536 5533 5530 5527 5526 5524 5523 5522 5522
5732 5728 5724 5720 5716 5711 5706 5701 5695 5689 5683 5677 5671 5665 5659 5654 5648 5640 5634 5627 5619 5611 5602 5593 5584 5575 5567 5559 5551 5544 5538 5532 5528 5524 5522 5520 5518 5516 5514 5514 5513 5511 5511
5719 5715 5711 5707 5702 5697 5692 5687 5681 5675 5669 5663 5657 5651 5645 5640 5633 5626 5620 5612 5605 5596 5587 5578 5569 5560 5552 5544 5538 5532 5526 5521 5517 5514 5512 5510 5509 5507 5506 5504 5504 5502 5502
5705 5702 5698 5693 5689 5684 5679 5673 5667 5661 5655 5649 5643 5637 5632 5626 5619 5613 5606 5598 5590 5582 5573 5564 5555 5547 5539 5532 5526 5520 5515 5510 5507 5505 5504 5502 5502 5500 5499 5497 5496 5495 5495
5692 5689 5685 5680 5676 5671 5665 5660 5654 5648 5642 5636 5630 5624 5619 5613 5606 5599 5592 5584 5576 5568 5560 5552 5544 5536 5529 5523 5517 5511 5507 5503 5500 5499 5499 5498 5497 5495 5493 5492 5491 5490 5489
5680 5676 5672 5668 5663 5658 5653 5647 5641 5635 5629 5623 5618 5612 5606 5601 5594 5587 5579 5571 5563 5555 5548 5541 5534 5527 5520 5515 5510 5505 5502 5499 5497 5496 5495 5494 5493 5492 5490 5489 5488 5487 5486
5668 5665 5660 5656 5651 5645 5640 5634 5628 5622 5617 5611 5606 5600 5594 5588 5582 5574 5567 5560 5553 5546 5539 5533 5526 5521 5515 5510 5505 5502 5500 5498 5496 5495 5494 5493 5492 5491 5489 5488 5487 5486 5485
5657 5653 5649 5644 5639 5633 5627 5621 5616 5611 5605 5600 5594 5588 5582 5576 5569 5563 5557 5551 5545 5539 5533 5527 5521 5516 5512 5508 5504 5502 5500 5498 5497 5496 5495 5494 5492 5491 5490 5488 5487 5485 5483
5647 5642 5638 5632 5627 5622 5615 5610 5605 5600 5594 5589 5583 5577 5571 5565 5558 5553 5549 5544 5539 5534 5528 5523 5518 5514 5511 5508 5505 5503 5501 5500 5499 5498 5497 5496 5494 5493 5491 5489 5487 5484 5482
5636 5631 5626 5621 5616 5611 5606 5600 5594 5589 5583 5577 5571 5566 5560 5555 5551 5546 5542 5537 5533 5529 5525 5521 5517 5514 5511 5509 5507 5505 5504 5503 5502 5501 5500 5498 5497 5495 5492 5490 5487 5484 5482
5627 5622 5616 5611 5606 5601 5596 5590 5584 5578 5572 5567 5562 5557 5553 5549 5545 5541 5536 5533 5529 5526 5523 5520 5518 5515 5513 5511 5510 5509 5507 5506 5505 5504 5503 5501 5499 5496 5494 5491 5488 5485 5482
5618 5613 5608 5603 5598 5592 5586 5580 5574 5569 5564 5560 5555 5551 5548 5544 5540 5536 5533 5529 5527 5524 5522 5521 5519 5517 5516 5514 5513 5512 5511 5510 5509 5507 5505 5503 5501 5499 5497 5494 5490 5487 5485
5611 5606 5601 5595 5589 5583 5577 5572 5567 5563 5559 5555 5551 5547 5544 5540 5537 5533 5530 5528 5526 5524 5523 5522 5521 5520 5519 5518 5517 5516 5515 5513 5512 5510 5509 5507 5505 5503 5500 5497 5494 5492 5489
5604 5599 5593 5587 5582 5577 5572 5567 5563 5559 5555 5551 5548 5544 5540 5537 5534 5531 5529 5527 5526 5525 5525 5525 5524 5523 5523 5522 5521 5520 5518 5517 5515 5514 5512 5511 5509 5507 5505 5502 5499 5497 5495
5598 5592 5586 5581 5577 5572 5568 5564 5560 5556 5553 5549 5545 5542 5539 5536 5533 5531 5529 5528 5528 5528 5528 5528 5527 5527 5526 5525 5524 5523 5522 5520 5519 5518 5517 5515 5514 5512 5510 5508 5505 5503 5501
5592 5587 5582 5577 5572 5568 5564 5561 5557 5553 5550 5547 5544 5541 5538 5535 5533 5531 5530 5530 5530 5530 5531 5531 5531 5530 5530 5529 5528 5527 5525 5524 5523 5522 5521 5521 5520 5518 5516 5514 5512 5510 5508
5587 5582 5578 5573 5569 5565 5562 5558 5555 5552 5549 5546 5543 5541 5538 5536 5534 5533 5532 5532 5533 5533 5534 5534 5534 5534 5533 5532 5531 5530 5529 5528 5528 5527 5527 5526 5525 5524 5523 5521 5519 5517 5515
5584 5579 5575 5571 5567 5563 5560 5556 5553 5551 5548 5546 5543 5541 5539 5537 5536 5535 5535 5535 5536 5537 5537 5538 5537 5537 5536 5536 5535 5534 5533 5533 5532 5532 5532 5532 5531 5530 5529 5528 5526 5525 5523
5582 5578 5573 5569 5565 5562 5558 5555 5553 5550 5548 5546 5544 5543 5541 5540 5539 5538 5538 5539 5540 5540 5541 5541 5541 5541 5540 5539 5538 5538 5537 5537 5537 5537 5537 5537 5537 5537 5536 5535 5533 5532 5531
5582 5577 5573 5568 5564 5561 5558 5555 5553 5551 5549 5547 5546 5545 5544 5543 5542 5542 5542 5543 5544 5544 5545 5545 5544 5544 5543 5543 5542 5542 5542 5542 5542 5543 5543 5543 5543 5543 5542 5541 5541 5540 5539
5583 5578 5573 5569 5565 5561 5558 5556 5554 5552 5550 5549 5549 5548 5547 5546 5546 5546 5547 5547 5548 5548 5548 5548 5548 5547 5547 5547 5546 5546 5547 5547 5547 5548 5548 5549 5549 5549 5549 5548 5548 5547 5546
5585 5580 5575 5570 5566 5563 5560 5558 5556 5554 5553 5552 5552 5551 5551 5551 5551 5551 5551 5552 5552 5552 5552 5552 5551 5551 5551 5551 5551 5551 5551 5552 5552 5553 5554 5554 5555 5555 5555 5555 5555 5554 5554
5589 5584 5578 5573 5569 5566 5563 5561 5559 5558 5557 5556 5556 5555 5555 5555 5555 5556 5556 5556 5556 5556 5556 5556 5555 5555 5555 5555 5555 5555 5556 5557 5558 5559 5560 5560 5560 5561 5561 5561 5561 5561 5561
5595 5589 5583 5578 5573 5570 5567 5565 5563 5562 5561 5561 5560 5560 5560 5560 5560 5560 5560 5560 5560 5560 5560 5560 5559 5559 5559 5559 5560 5560 5561 5562 5563 5564 5565 5565 5566 5566 5567 5567 5567 5567 5567
Wind_Speed
42 44 45 46 46 47 48 49 51 53 55 57 58 59 59 58 59 60 61 62 62 62 64 65 67 68 68 69 69 69 68 68 67 64 62 59 56 54 52 52 52 52 52
43 45 46 47 48 50 52 53 54 55 57 58 60 60 60 61 62 61 61 62 62 63 64 66 67 68 68 68 68 67 66 64 62 57 52 49 47 45 44 43 42 42 43
45 47 49 51 52 54 55 55 56 57 58 61 62 62 62 62 61 60 60 61 62 64 65 67 67 68 67 66 65 62 58 55 52 48 44 42 40 39 38 36 36 36 36
50 52 53 54 55 55 55 56 58 59 60 63 64 63 62 61 59 59 60 61 62 64 65 66 66 65 63 60 56 53 50 47 45 42 38 36 33 33 32 31 31 31 32
54 55 56 56 55 55 56 57 60 63 64 65 64 64 62 58 57 58 59 61 62 63 63 63 61 58 55 52 49 46 44 41 38 35 32 29 27 27 28 27 26 26 25
56 56 56 56 56 56 57 60 63 65 67 65 63 59 56 55 55 57 59 60 61 61 60 57 54 51 48 46 44 41 38 35 31 27 24 22 22 22 22 21 20 20 20
55 55 54 55 56 58 59 61 65 66 64 61 57 54 53 53 55 56 57 58 57 56 53 50 47 44 42 39 36 33 30 25 20 17 16 17 17 16 15 14 14 13 14
51 51 52 54 57 59 61 64 66 64 59 55 52 51 51 52 53 54 54 53 51 48 46 43 40 37 34 31 28 24 20 16 13 12 12 12 11 10 9 9 8 8 9
49 49 52 55 58 60 61 62 60 57 52 49 49 49 50 51 51 50 49 46 43 41 39 37 34 30 28 24 19 15 12 9 8 8 7 6 6 6 6 6 6 6 6
47 49 52 56 58 57 56 54 51 48 46 47 48 48 48 47 46 44 41 37 35 34 33 31 27 24 20 16 12 9 7 6 6 5 5 5 5 6 7 7 7 7 7
46 50 53 54 53 50 48 46 45 45 46 46 46 45 43 40 38 35 32 30 28 27 25 22 19 16 13 9 7 6 6 7 7 7 8 8 8 8 9 9 9 9 8
46 48 48 47 46 44 43 43 43 43 43 41 40 38 35 32 30 28 27 25 23 20 17 14 12 10 8 6 7 8 9 9 10 9 9 9 9 10 10 10 10 10 9
43 41 40 39 39 40 41 41 40 39 36 34 32 29 27 25 25 24 23 20 17 14 11 9 7 6 6 8 9 10 11 11 10 10 9 10 11 11 12 12 11 11 9
34 33 34 35 36 37 38 36 34 31 28 26 24 23 22 22 21 20 19 16 13 9 7 6 6 8 10 11 12 12 11 11 10 10 10 11 12 13 14 14 13 13 11
30 31 33 34 34 33 30 27 25 22 21 20 20 20 20 19 18 16 14 12 9 6 5 7 9 11 13 13 12 11 11 10 10 10 11 12 13 14 16 16 15 14 14
30 31 31 30 27 25 22 20 19 18 19 20 20 19 18 16 15 13 10 8 5 5 8 10 12 13 12 11 11 11 10 10 11 11 12 13 14 15 16 17 17 16 16
29 28 26 24 21 20 19 18 17 17 18 18 18 17 15 13 12 9 7 5 6 9 11 12 12 12 11 11 10 10 11 11 11 12 13 13 14 15 17 18 18 18 18
25 24 22 20 18 18 18 17 17 17 17 16 15 14 12 11 9 7 5 6 9 11 12 12 12 12 11 11 10 11 11 11 11 12 13 14 14 16 17 18 18 18 19
24 22 20 18 18 18 17 17 16 15 14 14 12 11 10 9 8 6 7 10 12 13 13 13 12 12 11 11 10 10 11 11 12 12 13 14 14 16 17 18 19 19 20
21 20 19 18 18 17 16 15 14 12 12 11 10 9 9 8 8 9 11 12 13 13 13 13 12 11 11 11 10 10 11 11 12 13 13 13 14 15 16 17 18 19 20
21 19 18 17 17 16 14 13 11 10 9 8 8 8 8 9 10 11 13 13 14 13 13 12 11 11 11 11 11 11 11 11 12 13 14 13 14 14 16 17 18 18 19
20 19 18 17 16 14 13 11 9 8 8 7 7 8 10 11 12 13 14 14 14 13 12 11 10 10 10 10 11 11 11 11 12 13 13 13 13 14 15 17 18 19 19
21 20 19 17 16 13 12 10 9 8 8 7 8 10 11 13 14 14 14 14 13 12 10 10 10 10 10 10 11 11 11 12 12 13 13 14 14 14 15 16 18 19 19
24 22 21 19 16 14 12 11 10 10 9 9 10 11 13 14 15 15 14 13 12 11 11 10 10 10 10 10 10 11 11 12 13 13 13 13 14 14 14 16 17 18 19
27 25 23 21 18 16 14 13 12 12 11 11 12 13 14 15 15 15 14 13 12 11 11 10 10 10 11 11 11 12 12 12 13 14 14 14 15 14 15 15 16 17 18
30 29 27 25 22 19 17 16 15 14 14 13 13 14 15 15 15 15 14 14 13 12 12 11 11 11 11 12 12 12 13 13 14 14 14 14 14 14 14 14 14 15 15
Wind_Direction
280 282 283 285 287 289 290 293 295 295 296 297 297 297 297 298 299 299 300 300 300 300 300 300 299 299 298 297 296 295 294 293 291 290 288 287 285 283 281 279 277 275 273
282 284 286 288 290 292 292 294 295 296 296 295 296 297 297 298 299 300 300 300 300 300 300 300 300 300 299 298 297 296 295 294 293 291 289 288 286 284 282 279 278 276 274
285 287 289 290 292 293 293 294 296 296 295 296 297 297 298 299 300 300 300 301 301 301 301 302 302 301 300 300 299 297 296 295 294 292 290 288 286 284 282 280 278 276 273
286 288 290 291 292 293 293 294 295 294 295 296 296 297 299 300 301 300 301 302 302 303 303 303 303 303 302 301 300 299 298 297 295 293 291 289 286 283 283 280 278 277 274
287 288 290 291 292 293 294 294 295 295 295 295 295 297 299 301 301 302 302 303 303 304 305 305 305 304 304 303 303 302 300 298 296 294 292 289 286 285 285 283 280 276 272
287 288 290 291 291 292 292 293 294 293 293 294 297 298 301 303 302 303 303 304 305 306 306 306 306 306 306 305 305 304 302 300 297 293 290 288 289 291 289 285 280 274 269
286 288 289 290 290 291 292 292 291 291 293 295 299 301 302 303 303 303 304 306 307 308 308 308 308 309 308 308 308 307 306 304 300 295 292 293 296 296 293 288 283 277 268
286 287 288 289 289 290 290 290 292 293 295 298 302 302 303 303 304 305 307 308 309 309 310 311 313 313 313 313 312 311 311 309 306 303 302 302 302 303 303 299 293 285 276
286 287 288 288 288 288 289 290 292 296 300 302 303 303 304 304 305 307 308 310 310 312 313 315 317 318 319 320 320 320 321 323 324 324 324 324 327 330 332 330 322 312 297
286 287 286 287 288 289 291 294 297 300 303 304 304 304 305 306 307 308 309 311 313 314 315 317 320 322 325 328 334 342 350 355 358 4 10 16 17 12 1 350 339 328 316
284 284 285 286 288 293 297 301 304 304 304 304 305 306 306 306 307 308 310 312 314 316 317 320 323 329 335 344 359 15 27 38 45 47 50 45 33 17 6 358 350 343 334
283 285 287 290 295 299 303 305 305 306 306 307 307 307 307 307 309 311 314 316 319 321 323 328 334 343 356 17 40 53 60 61 60 59 52 38 24 16 12 6 358 352 348
287 291 296 301 303 305 306 307 308 309 310 310 310 310 310 312 314 316 318 322 327 331 336 346 358 15 42 62 69 70 68 66 62 54 43 32 27 27 23 16 11 10 10
300 304 306 306 307 308 310 312 314 315 316 316 317 317 318 319 320 321 324 329 337 345 357 16 43 68 77 79 77 73 69 63 56 48 41 39 40 40 35 31 31 33 40
309 309 309 311 313 316 318 320 321 322 324 325 325 325 324 324 326 327 329 335 345 7 44 71 84 86 86 83 76 70 64 56 50 46 49 51 51 47 42 40 45 51 57
312 314 317 319 321 324 326 328 329 329 330 331 331 331 330 329 331 334 340 351 21 75 88 92 92 90 86 80 73 67 58 52 51 55 61 62 59 52 48 47 51 58 64
321 323 325 327 329 331 333 333 334 335 335 335 336 336 335 336 339 346 357 35 88 100 99 97 94 89 83 76 71 65 58 54 60 66 71 70 65 58 54 51 52 61 70
330 331 332 334 335 337 337 337 338 339 339 340 339 340 343 349 355 8 41 90 106 106 102 98 92 86 80 73 68 64 58 62 72 77 79 77 70 62 57 54 55 62 72
337 337 338 339 339 340 340 340 339 340 343 344 346 350 356 7 21 53 84 103 109 106 103 98 90 82 75 68 65 63 64 74 83 86 85 82 73 65 60 57 59 65 71
342 342 342 341 341 342 343 344 344 344 348 353 359 6 17 31 53 78 95 106 108 106 103 96 88 79 71 67 66 69 75 84 91 92 91 86 78 71 65 62 61 65 70
350 349 348 348 347 348 349 350 353 357 2 9 16 27 40 54 74 87 99 105 106 105 101 95 86 79 72 67 67 74 84 91 96 97 95 91 84 78 73 70 68 67 69
360 0 359 357 357 358 359 3 8 14 18 27 39 51 61 72 84 91 99 104 104 102 97 90 82 78 75 70 72 80 90 97 99 101 98 95 90 84 81 80 77 75 76
15 12 9 8 9 10 13 20 28 34 42 54 64 72 77 82 87 92 98 102 101 96 91 85 81 79 77 76 80 86 94 101 101 102 100 97 94 90 87 85 84 83 82
24 21 20 20 23 27 33 41 47 53 62 73 79 83 85 87 88 91 95 97 95 90 87 83 80 79 79 84 90 93 98 105 107 105 103 99 97 94 91 89 87 86 86
32 30 30 32 35 40 46 53 57 62 72 81 84 87 89 89 89 89 91 91 89 86 84 82 81 81 82 89 94 96 101 107 112 111 108 104 100 96 93 90 87 86 86
38 38 39 40 44 49 54 59 63 69 75 81 85 87 90 90 89 87 87 86 85 83 82 83 83 84 87 91 95 98 102 107 111 111 111 107 101 96 92 89 86 83 82